Погода в Баранчинском

Россия / Свердловская область     58°09′44″N   59°41′47″E
темп.,
°C
ветер,
м/с
пор.,
м/с
влажн.,
%
обл.,
%
осадки,
мм/ч
давл.,
гПа
погр.,
м
8 мая, сб
сб823:00+10юз257812 0.0 101775
02:00+10зюз2276100 0.0 101732
05:00+9юз2281100 0.0 101824
08:00+13юз2462100 0.0 1017184
11:00+18зюз2442100 0.0 10171656
14:00+17зюз244699 0.0 1017336
17:00+19зсз2337100 0.0 10162088
20:00+14юв1161100 0.0 101715
9 мая, вс
вс923:00+12ссз1168100 0.0 101710
02:00+12ссз1168100 0.0 101810
05:00+11с2278100 0.1 101937
08:00+13ссв347399 0.0 1019318
11:00+18св344867 0.0 1018951
14:00+19всв2439100 0.0 10182224
17:00+21вюв243279 0.0 10182568
20:00+15св2258100 0.1 101927
10 мая, пн
пн1023:00+12св2268100 0.1 102038
02:00+10с118395 0.0 102110
05:00+9всв11865 0.0 102210
08:00+14ююв12605 0.0 1023223
11:00+20ююв344012 0.0 10231204
14:00+22ююв3432100 0.0 10222823
17:00+21ю4433100 0.0 10211759
20:00+18юв1148100 0.0 102213
11 мая, вт
вт1123:00+16ю2255100 0.0 102119
02:00+13сз2674100 0.0 1022198
05:00+12зсз3988100 0.4 1022617
08:00+12сз477115 0.4 1024805
11:00+14сз565174 0.4 10251608
14:00+13ссз4650100 0.0 10251658
17:00+16св464311 0.0 10261666
20:00+14сз254582 0.0 1026197
12 мая, ср
ср1223:00+9сз275810 0.0 1028151
02:00+7сз226484 0.0 102913
05:00+7з216599 0.0 102918
08:00+10зсз3857100 0.0 1029319
11:00+9зюз2870100 0.1 1028396
14:00+11з377398 0.3 1028612
17:00+13с3674100 0.3 1027533
20:00+13св247842 0.0 1028336